Retour au catalogue

CZ-6A DEB

ActifPO
NORAD 64633·DEBRIS·🇨🇳 China

Lancé Aug 6, 2024 depuis Taiyuan Satellite Launch Center

Loading…

Prochains Passages (prochaines 24 heures)

TLE

FraisSource: Space-Track

Époque: Sep 14, 2026, 07:01 UTC

1 64633U 24140ADX 26257.29248512  .00002560  00000-0  13037-2 0  9997
2 64633  88.9917 265.5608 0102117 304.1094  55.0435 14.12886872102317

Suivez CZ-6A DEB en temps réel avec AllMySat

Download on the App Store